Probability
0 0 0 0 0 0 0 0 0 0 0 0 0 0 0 0 0 0 0 0 0 0 0 0 0 0 0 0 0 0 0 0 0 0 0 0 0 0
0 0 0 0 0 0 0 0 0 0 0 0 0 0 0 0 0 0 0 0 0 0 0 0 0 0 0 0 0 0 0 0 0 0 0 0 0 0
0 0 0 0 0 0 0 0 0 0 0 0 0 0 0 0 0 0 0 0 0 0 0 0 0 0 0 0 0 0 0 0 0 0 0 0 0 0
0 0 0 0 0 0 0 0 0 0 0 0 0 0 0 0 0 0 0 0 0 0 0 0 0 0 0 0 0 0 0 0 0 0 0 0 0 0
0 0 0 0 0 0 0 0 0 0 0 0 0 0 0 0 0 0 0 0 0 0 0 0 0 0 0 0 0 0 0 0 0 0 0 0 0 0
0 0 0 0 0 0 0 0 0 0 0 0 0 0 0 0 0 0 0 0 0 0 0 0 0 0 0 0 0 0 0 0 0 0 0 0 0 0
0 0 0 0 0 0 0 0 0 0 0 0 0 0 0 0 0 0 0 0 0 0 0 0 0 0 0 0 0 0 0 0 0 0 0 0 0 0
0 0 0 0 0 0 0 0 0 0 0 0 0 0 0 0 0 0 0 0 0 0 0 0 0 0 0 0 0 0 0 0 0 0 0 0 0 0
0 0 0 0 0 0 0 0 0 0 0 0 0 0 0 0 0 0 0 0 0 0 0 0 0 0 0 0 0 0 0 0 0 0 0 0 0 0
0 0 0 0 0 0 0 0 0 0 0 0 0 0 0 0 0 0 0 0 0 0 0 0 0 0 0 0 0 0 0 0 0 0 0 0 0 0
0 0 0 0 0 0 0 0 0 0 0 0 0 0 0 0 0 0 0 0 0 0 0 0 0 0 0 0 0 0 0 0 0 0 0 0 0 0
0 0 0 0 0 0 0 0 0 0 0 0 0 0 0 0 0 0 0 0 0 0 0 0 0 0 0 0 0 0 0 0 0 0 0 0 0 0
0 0 0 0 0 0 0 0 0 0 0 0 0 0 0 0 0 0 0 0 0 0 0 0 0 0 0 0 0 0 0 0 0 0 0 0 0 0
0 0 0 0 0 0 0 0 0 0 0 0 0 0 0 0 0 0 0 0 0 0 0 0 0 0 0 0 0 0 0 0 0 0 0 0 0 0
0 0 0 0 0 0 0 0 0 0 0 0 0 0 0 0 0 0 0 0 0 0 0 0 0 0 0 0 0 0 0 0 0 0 0 0 0 0
0 0 0 0 0 0 0 0 0 0 0 0 0 0 0 0 0 0 0 0 0 0 0 0 0 0 0 0 0 0 0 0 0 0 0 0 0 0
0 0 0 0 0 0 0 0 0 0 0 0 0 0 0 0 0 0 0 0 0 0 0 0 0 0 0 0 0 0 0 0 0 0 0 0 0 0
0 0 0 0 0 0 0 0 0 0 0 0 0 0 0 0 0 0 0 0 0 0 0 0 0 0 0 0 0 0 0 0 0 0 0 0 0 0
0 0 0 0 0 0 0 0 0 0 0 0 0 0 0 0 0 0 0 0 0 0 0 0 0 0 0 0 0 0 0 0 0 0 0 0 0 0
0 0 0 0 0 0 0 0 0 0 0 0 0 0 0 0 0 0 0 0 0 0 0 0 0 0 0 0 0 0 0 0 0 0 0 0 0 0
0 0 0 0 0 0 0 0 0 0 0 0 0 0 0 0 0 0 0 0 0 0 0 0 0 0 0 0 0 0 0 0 0 0 0 0 0 0
0 0 0 0 0 0 0 0 0 0 0 0 0 0 0 0 0 0 0 0 0 0 0 0 0 0 0 0 0 0 0 0 0 0 0 0 0 0
0 0 0 0 0 0 0 0 0 0 0 0 0 0 0 0 0 0 0 0 0 0 0 0 0 0 0 0 0 0 0 0 0 0 0 0 0 0
Height
5733 5730 5726 5721 5716 5711 5706 5701 5696 5691 5686 5679 5672 5664 5657 5650 5643 5635 5627 5618 5609 5600 5592 5583 5575 5567 5559 5551 5544 5537 5531 5524 5518 5513 5507 5502 5498 5495
5726 5722 5718 5713 5708 5703 5698 5692 5687 5681 5676 5669 5661 5654 5646 5639 5630 5622 5613 5604 5594 5585 5575 5566 5557 5549 5540 5532 5525 5517 5510 5504 5497 5491 5486 5481 5477 5473
5718 5714 5710 5705 5700 5695 5689 5684 5677 5671 5665 5659 5650 5643 5635 5626 5617 5608 5598 5589 5579 5569 5559 5549 5540 5531 5522 5513 5505 5497 5490 5483 5477 5471 5465 5461 5457 5454
5710 5706 5702 5697 5692 5687 5681 5675 5668 5661 5655 5648 5640 5631 5623 5613 5604 5594 5584 5573 5563 5553 5543 5532 5522 5513 5504 5495 5487 5479 5472 5465 5458 5453 5448 5444 5440 5436
5702 5698 5693 5688 5683 5678 5672 5666 5659 5652 5644 5637 5629 5619 5610 5600 5590 5580 5569 5558 5547 5537 5527 5516 5506 5497 5488 5479 5470 5462 5455 5448 5442 5436 5431 5427 5423 5420
5694 5690 5685 5680 5675 5669 5663 5657 5650 5642 5634 5625 5617 5607 5597 5587 5576 5566 5555 5544 5533 5522 5511 5501 5491 5482 5472 5464 5455 5448 5440 5433 5427 5422 5417 5413 5409 5406
5686 5681 5677 5672 5666 5660 5654 5647 5639 5632 5623 5614 5605 5595 5584 5574 5563 5551 5540 5530 5519 5507 5498 5487 5478 5468 5459 5450 5442 5434 5427 5420 5415 5409 5404 5400 5397 5394
5678 5673 5668 5663 5657 5651 5644 5637 5629 5621 5613 5603 5593 5583 5572 5560 5548 5536 5525 5516 5507 5497 5485 5475 5465 5456 5447 5438 5430 5422 5415 5409 5404 5399 5394 5390 5387 5384
5670 5665 5660 5654 5648 5642 5635 5628 5619 5610 5602 5592 5582 5570 5559 5548 5537 5525 5513 5501 5491 5481 5472 5464 5454 5444 5435 5427 5419 5412 5406 5400 5394 5390 5386 5382 5379 5376
5661 5657 5651 5646 5640 5633 5626 5618 5609 5601 5592 5582 5571 5559 5547 5535 5524 5512 5501 5491 5480 5469 5460 5453 5444 5435 5426 5418 5410 5404 5398 5392 5387 5382 5379 5375 5372 5369
5653 5648 5643 5637 5631 5625 5617 5609 5601 5591 5581 5570 5559 5547 5535 5524 5512 5501 5491 5480 5471 5461 5452 5444 5436 5427 5419 5410 5403 5396 5391 5385 5381 5376 5373 5370 5367 5364
5645 5640 5634 5628 5622 5615 5608 5600 5591 5581 5571 5560 5549 5537 5525 5514 5502 5491 5481 5471 5462 5454 5445 5436 5427 5420 5413 5405 5397 5391 5385 5380 5376 5372 5368 5365 5362 5359
5636 5631 5625 5619 5613 5606 5598 5590 5581 5571 5561 5550 5539 5528 5516 5505 5493 5482 5472 5463 5453 5444 5436 5428 5420 5412 5405 5399 5392 5386 5380 5375 5371 5367 5364 5360 5358 5355
5628 5622 5617 5611 5604 5597 5589 5581 5571 5562 5551 5540 5529 5518 5507 5496 5485 5474 5464 5454 5446 5437 5429 5421 5413 5406 5399 5393 5387 5381 5376 5371 5367 5364 5360 5357 5354 5351
5619 5614 5608 5602 5595 5588 5580 5571 5562 5552 5541 5530 5520 5509 5498 5487 5476 5466 5456 5447 5438 5430 5422 5414 5407 5400 5394 5388 5382 5377 5373 5368 5364 5361 5357 5354 5352 5349
5611 5606 5600 5593 5586 5579 5571 5562 5552 5542 5532 5521 5510 5500 5489 5478 5468 5458 5449 5440 5432 5423 5415 5408 5401 5394 5388 5383 5378 5373 5369 5365 5362 5358 5355 5352 5349 5346
5603 5597 5591 5585 5578 5570 5561 5552 5543 5532 5522 5512 5502 5491 5481 5470 5460 5451 5442 5433 5425 5417 5409 5402 5395 5389 5384 5379 5374 5369 5365 5362 5359 5356 5352 5349 5346 5343
5594 5589 5583 5576 5569 5561 5552 5543 5533 5523 5513 5503 5493 5483 5473 5462 5452 5443 5434 5426 5418 5411 5403 5396 5390 5384 5379 5375 5371 5367 5363 5359 5356 5353 5350 5347 5344 5341
5586 5581 5575 5568 5560 5552 5543 5534 5524 5514 5504 5494 5485 5474 5464 5454 5444 5436 5427 5419 5412 5405 5398 5391 5386 5381 5376 5371 5368 5364 5360 5357 5354 5351 5348 5344 5342 5339
5578 5572 5566 5559 5551 5543 5534 5525 5515 5505 5495 5486 5476 5466 5456 5446 5437 5428 5420 5413 5406 5399 5393 5387 5382 5378 5373 5369 5365 5362 5359 5355 5352 5349 5346 5343 5340 5337
5570 5564 5558 5550 5543 5534 5525 5516 5506 5496 5486 5477 5467 5457 5447 5438 5429 5421 5414 5407 5400 5394 5389 5384 5379 5375 5371 5367 5363 5360 5357 5353 5350 5347 5344 5341 5339 5336
5562 5556 5549 5542 5534 5525 5516 5507 5497 5487 5477 5468 5459 5449 5440 5431 5423 5415 5408 5402 5396 5390 5385 5381 5376 5372 5369 5365 5361 5358 5355 5352 5348 5345 5342 5340 5337 5335
5553 5547 5541 5533 5525 5516 5507 5498 5488 5478 5469 5460 5451 5442 5433 5425 5417 5410 5403 5397 5391 5386 5382 5378 5373 5370 5366 5363 5360 5356 5353 5350 5347 5344 5341 5338 5336 5333
Wind_Speed
38 39 39 41 42 43 43 44 46 46 47 48 49 51 52 53 55 57 59 61 62 63 64 64 65 66 66 66 66 66 67 66 66 66 66 65 64 64
38 39 40 41 42 43 44 45 47 48 48 49 51 52 54 56 58 60 62 63 64 65 66 66 66 67 67 67 67 67 67 66 66 65 63 62 61 60
39 40 41 42 42 43 44 46 47 49 50 51 53 54 56 59 61 63 64 65 66 66 66 67 67 67 67 66 66 65 65 63 62 60 58 56 55 54
39 40 41 42 42 43 45 47 48 50 51 53 54 57 59 61 63 64 65 66 66 66 66 66 66 65 64 64 63 62 61 59 57 55 54 52 51 50
39 40 41 42 43 44 46 47 49 51 53 55 56 58 61 62 64 65 66 66 66 66 65 64 63 63 62 61 60 58 57 55 53 50 48 48 46 46
39 40 41 42 43 45 47 49 51 52 54 56 58 60 62 63 65 66 66 66 65 64 63 62 61 61 59 58 57 55 53 50 48 45 44 43 42 40
39 41 42 42 44 46 48 50 51 53 55 57 59 61 62 65 66 66 65 63 62 62 61 59 58 57 55 54 53 51 49 45 43 41 39 38 37 35
39 40 41 43 44 46 48 50 52 54 56 58 60 62 64 65 66 65 64 62 60 59 57 56 55 53 52 51 49 47 44 41 39 37 35 33 32 30
39 40 41 43 45 47 49 51 52 55 57 59 61 63 65 65 64 63 62 61 59 56 54 52 51 50 49 47 45 43 40 37 35 33 31 29 28 27
39 40 41 43 45 47 49 50 52 55 57 59 62 64 64 64 63 62 60 58 56 54 52 50 48 47 45 43 42 39 36 34 31 29 27 26 25 24
39 40 41 43 45 48 49 51 53 56 58 60 62 63 63 62 61 60 58 55 53 51 49 48 46 44 43 41 39 36 33 31 28 26 25 23 22 22
39 40 42 44 45 48 49 51 54 56 58 60 61 62 62 61 60 58 55 53 51 49 47 46 44 42 40 38 35 33 30 28 25 24 22 21 20 20
39 41 42 44 45 48 50 52 55 56 58 60 61 60 60 59 58 56 54 52 49 47 46 44 43 41 39 35 33 31 28 25 24 22 20 19 18 18
39 41 42 44 46 48 51 53 55 56 58 60 59 59 58 58 56 55 52 49 47 46 45 44 41 39 36 33 30 28 26 23 22 20 19 18 17 17
39 41 42 44 46 49 51 53 55 57 59 59 58 58 57 57 55 53 50 48 46 45 44 42 40 37 34 30 28 25 23 21 19 19 18 17 17 16
39 41 42 44 47 49 51 53 55 57 58 58 57 57 57 55 53 51 49 47 45 44 43 41 38 35 32 28 26 24 22 20 19 18 17 17 16 16
39 40 42 45 47 49 51 54 56 57 57 56 56 56 56 54 52 50 48 46 44 42 41 39 36 33 29 26 24 22 21 19 18 18 17 17 16 15
39 40 43 45 47 50 51 54 56 57 56 55 55 56 55 54 51 48 46 44 42 40 38 35 33 30 28 24 22 21 20 18 17 17 17 16 15 14
38 40 43 45 48 50 52 54 56 56 55 54 55 56 55 53 49 47 44 42 40 38 35 32 29 27 25 23 21 19 18 18 17 17 16 15 14 13
38 40 43 46 48 50 52 54 55 56 55 55 56 55 54 51 48 44 42 40 38 35 32 29 27 24 23 21 20 18 17 17 17 17 16 15 14 13
38 40 43 46 49 50 52 54 55 55 55 55 55 54 51 49 46 42 40 38 35 32 29 27 25 23 21 20 19 18 17 17 17 16 15 14 13 13
38 41 44 47 49 51 53 55 56 55 54 54 53 51 49 47 44 40 38 35 32 29 27 25 24 21 20 19 18 18 18 17 16 16 15 14 13 12
39 41 45 48 50 51 53 55 55 54 53 52 51 49 47 45 41 38 35 32 29 27 25 24 22 20 19 18 18 18 18 17 16 16 15 14 13 12
Wind_Direction
302 304 305 306 308 309 309 309 309 310 311 310 310 311 311 311 310 310 310 309 308 307 306 305 304 303 302 300 299 298 296 295 293 292 290 288 286 283
302 303 305 306 308 308 308 309 310 311 312 311 311 311 311 311 311 310 310 309 309 308 307 306 305 304 303 302 300 299 298 296 295 293 291 289 286 284
302 303 305 306 307 308 308 309 310 311 312 312 312 312 312 311 311 311 311 310 309 308 308 307 305 305 304 303 303 302 300 298 297 295 293 290 287 285
301 303 304 306 307 308 309 310 311 312 312 312 312 312 312 313 312 312 311 311 310 310 309 308 307 306 306 305 305 304 303 300 298 296 293 291 289 287
301 302 304 306 307 309 310 310 311 312 313 313 313 314 314 314 314 313 312 312 311 311 310 310 309 308 308 307 306 306 305 303 300 298 295 293 290 288
301 303 305 307 308 309 310 311 312 313 314 315 315 315 315 315 315 315 314 313 312 312 312 311 310 310 310 309 309 308 307 305 303 300 298 295 293 290
302 304 306 308 309 310 311 312 313 314 315 316 317 317 317 317 316 316 316 315 314 314 314 313 312 312 312 312 311 310 308 306 305 303 300 298 295 293
302 305 307 309 310 311 312 313 314 316 317 318 319 319 319 319 319 319 318 318 316 316 315 315 315 315 315 315 314 312 310 308 306 305 303 300 297 295
303 306 307 309 310 312 314 315 316 317 318 319 320 320 320 320 321 321 321 320 319 319 319 319 318 318 318 318 316 315 313 311 309 307 306 303 301 298
304 306 308 309 311 313 315 316 317 318 319 320 321 322 322 322 323 323 322 322 322 321 322 322 322 321 321 321 320 318 317 315 313 311 309 307 305 302
305 307 308 310 312 314 316 317 318 319 320 321 322 322 323 324 324 324 324 324 324 323 323 324 324 323 323 323 322 321 320 318 316 314 311 310 309 307
306 308 310 312 313 316 317 318 319 320 321 322 323 324 324 325 326 326 325 325 325 325 325 325 325 325 325 324 323 323 322 320 319 318 316 314 312 311
307 309 311 313 314 316 318 319 320 322 323 324 324 325 326 326 326 326 326 326 326 326 326 326 326 326 326 325 325 325 324 323 322 320 320 319 317 316
308 310 311 313 315 317 319 321 322 323 324 325 325 326 327 327 327 327 326 326 326 327 327 327 327 327 327 326 326 326 326 325 325 324 323 322 322 320
308 311 312 314 317 318 320 322 323 324 325 326 326 327 327 328 327 327 327 327 326 327 327 328 328 328 327 327 327 327 327 327 326 326 325 325 324 323
309 311 313 315 317 319 321 323 324 325 326 327 327 328 328 328 328 327 327 327 327 326 327 327 328 328 328 327 326 326 327 328 328 328 327 327 327 326
310 312 314 316 318 320 322 324 325 326 327 327 328 329 329 329 328 328 327 327 327 327 327 327 327 328 328 328 327 327 327 328 328 328 329 330 330 329
310 313 315 317 320 322 323 325 326 327 327 328 328 329 329 329 328 328 327 327 327 328 328 328 329 330 330 331 331 330 330 330 330 331 331 332 332 332
311 314 316 319 321 323 324 326 327 328 328 328 329 330 330 329 328 328 328 328 328 329 330 330 330 331 332 333 334 334 332 332 334 335 335 334 333 332
312 315 318 321 323 324 325 327 328 328 328 328 329 330 330 330 329 328 328 329 329 330 331 332 333 333 334 334 335 336 336 336 336 337 337 336 336 335
314 317 320 322 324 325 326 327 328 328 328 328 329 330 330 330 330 329 329 329 330 331 332 333 334 334 335 335 337 337 338 338 338 339 338 338 337 337
316 319 321 323 325 326 326 328 328 328 328 329 330 330 331 331 330 329 330 330 331 332 332 333 334 335 336 336 337 337 338 339 340 341 341 340 339 339
317 319 322 324 326 326 327 328 328 328 329 329 330 331 331 331 331 330 330 331 332 333 333 334 335 335 336 337 338 339 340 341 342 343 343 342 342 343